Total_Precipitation_Accumulation
1.21 1.27 1.35 1.35 1.38 1.44 1.52 1.64 1.77 1.69 1.52 1.31 1.29 1.24 1.20 1.18 1.27 1.13 1.16 1.12 1.08 1.15 1.16 1.20 1.27 1.42 1.47 1.37 1.25 1.17 1.14 1.21 1.31 1.42 1.63 1.89 2.15 2.41
1.07 1.05 1.06 1.05 1.10 1.15 1.26 1.39 1.52 1.60 1.53 1.27 1.22 1.29 1.27 1.17 1.33 1.23 1.20 1.17 1.12 1.33 1.48 1.43 1.40 1.57 1.70 1.65 1.47 1.33 1.26 1.25 1.27 1.29 1.37 1.55 1.79 2.02
0.85 0.87 0.90 0.93 0.98 1.00 1.03 1.18 1.39 1.53 1.57 1.30 1.16 1.23 1.35 1.31 1.35 1.32 1.22 1.18 1.25 1.64 1.85 2.05 1.80 1.70 1.80 1.77 1.65 1.45 1.31 1.26 1.31 1.38 1.45 1.53 1.59 1.68
0.81 0.85 0.86 0.87 0.88 0.94 0.99 1.07 1.22 1.40 1.56 1.50 1.29 1.30 1.36 1.38 1.43 1.43 1.27 1.12 1.18 1.64 1.94 2.26 2.22 1.98 1.98 1.82 1.65 1.45 1.32 1.25 1.28 1.33 1.39 1.44 1.49 1.56
0.75 0.80 0.84 0.95 0.93 0.94 1.00 1.03 1.12 1.25 1.49 1.57 1.44 1.41 1.48 1.52 1.63 1.53 1.37 1.32 1.11 1.38 1.81 2.16 2.34 2.36 2.42 2.27 1.95 1.59 1.36 1.23 1.16 1.17 1.23 1.28 1.31 1.29
0.72 0.78 0.83 0.95 1.03 1.05 1.04 1.05 1.09 1.21 1.38 1.55 1.53 1.50 1.56 1.64 1.69 1.66 1.51 1.35 1.23 1.21 1.68 2.15 2.49 2.52 2.68 2.76 2.45 1.97 1.56 1.30 1.14 1.06 1.01 0.99 1.03 1.03
0.69 0.71 0.75 0.85 0.94 0.92 0.86 0.88 1.02 1.22 1.32 1.49 1.54 1.52 1.52 1.63 1.62 1.45 1.39 1.32 1.19 1.14 1.36 1.77 2.46 2.79 2.84 2.90 2.78 2.27 1.79 1.46 1.22 1.08 1.00 0.95 0.95 0.96
0.67 0.66 0.63 0.63 0.63 0.66 0.72 0.77 0.89 1.15 1.47 1.67 1.63 1.56 1.44 1.41 1.44 1.40 1.42 1.44 1.38 1.10 1.08 1.39 1.98 2.74 2.99 2.94 2.85 2.25 1.70 1.39 1.23 1.11 1.05 1.02 1.00 1.00
0.69 0.69 0.56 0.49 0.58 0.65 0.71 0.75 0.88 1.05 1.33 1.67 1.75 1.53 1.46 1.42 1.45 1.45 1.50 1.57 1.46 1.14 1.14 1.40 1.77 2.45 2.67 2.67 2.56 1.95 1.53 1.26 1.12 1.04 1.01 0.98 0.94 0.96
0.64 0.67 0.69 0.65 0.62 0.67 0.74 0.84 0.97 1.11 1.21 1.31 1.61 1.44 1.22 1.21 1.30 1.35 1.44 1.48 1.39 1.21 1.21 1.50 1.77 2.23 2.25 2.31 2.22 1.76 1.40 1.22 1.06 0.95 0.91 0.90 0.87 0.89
0.56 0.56 0.57 0.60 0.65 0.77 0.91 1.12 1.24 1.36 1.30 1.43 1.59 1.53 1.37 1.27 1.17 1.23 1.45 1.50 1.46 1.30 1.25 1.48 1.70 1.83 1.95 2.02 1.83 1.64 1.37 1.19 1.07 0.96 0.88 0.83 0.78 0.82
0.60 0.61 0.55 0.51 0.62 0.78 1.02 1.31 1.45 1.52 1.38 1.48 1.73 1.78 1.60 1.56 1.51 1.40 1.51 1.56 1.52 1.48 1.25 1.32 1.52 1.57 1.80 1.77 1.62 1.49 1.40 1.37 1.23 1.08 0.97 0.83 0.70 0.68
0.59 0.67 0.65 0.58 0.64 0.85 1.06 1.25 1.41 1.44 1.47 1.54 1.57 1.61 1.68 1.70 1.65 1.57 1.54 1.53 1.51 1.45 1.17 1.26 1.48 1.53 1.64 1.66 1.62 1.59 1.53 1.49 1.35 1.30 1.25 1.08 0.88 0.76
0.59 0.64 0.67 0.64 0.68 0.89 1.07 1.31 1.52 1.59 1.56 1.59 1.45 1.38 1.34 1.36 1.42 1.38 1.33 1.28 1.26 1.21 1.10 1.19 1.49 1.64 1.59 1.51 1.66 1.68 1.70 1.74 1.65 1.53 1.47 1.35 1.18 1.07
0.47 0.54 0.60 0.64 0.80 1.10 1.27 1.44 1.61 1.71 1.73 1.60 1.41 1.30 1.17 1.09 1.08 1.14 1.14 1.12 1.06 0.97 0.92 1.05 1.33 1.50 1.53 1.52 1.67 1.72 1.82 1.98 1.90 1.84 1.69 1.52 1.40 1.26
0.45 0.59 0.70 0.78 0.97 1.28 1.49 1.68 1.73 1.64 1.48 1.40 1.31 1.24 1.09 1.02 1.03 0.96 0.96 1.00 1.02 1.01 0.93 0.94 1.16 1.37 1.49 1.41 1.48 1.61 1.71 2.03 2.01 1.81 1.70 1.68 1.57 1.41
0.41 0.61 0.79 0.94 1.15 1.38 1.55 1.61 1.59 1.48 1.37 1.18 1.11 1.15 1.13 1.05 1.01 0.92 0.86 0.88 0.97 1.02 1.00 0.97 1.01 1.12 1.19 1.24 1.39 1.51 1.62 1.79 1.83 1.64 1.51 1.58 1.63 1.51
0.43 0.64 0.78 0.89 1.09 1.32 1.46 1.43 1.32 1.24 1.15 1.04 0.99 0.97 0.96 0.93 0.91 0.86 0.77 0.77 0.85 0.83 0.81 0.80 0.86 0.95 0.98 1.03 1.23 1.38 1.44 1.57 1.54 1.36 1.21 1.27 1.51 1.54
0.46 0.66 0.78 0.88 1.06 1.21 1.26 1.24 1.20 1.10 1.01 0.96 0.93 0.85 0.79 0.77 0.73 0.70 0.68 0.71 0.70 0.66 0.63 0.60 0.66 0.81 0.94 1.11 1.15 1.20 1.28 1.35 1.30 1.17 1.09 1.14 1.37 1.51
0.50 0.68 0.81 0.88 0.96 1.03 1.09 1.14 1.12 1.03 0.93 0.90 0.91 0.85 0.77 0.70 0.64 0.61 0.62 0.58 0.59 0.58 0.56 0.51 0.48 0.58 0.73 0.86 1.04 1.09 1.05 1.05 1.05 1.07 1.01 1.05 1.21 1.28
0.57 0.68 0.76 0.82 0.84 0.85 0.90 0.96 0.97 0.94 0.87 0.83 0.82 0.80 0.74 0.66 0.58 0.52 0.48 0.38 0.41 0.48 0.50 0.45 0.40 0.39 0.47 0.57 0.74 0.84 0.84 0.90 0.85 0.81 0.79 0.83 0.89 0.89
0.55 0.62 0.68 0.73 0.71 0.71 0.72 0.75 0.78 0.78 0.75 0.72 0.71 0.69 0.62 0.54 0.50 0.45 0.43 0.41 0.41 0.39 0.35 0.32 0.31 0.32 0.38 0.51 0.64 0.70 0.68 0.64 0.66 0.65 0.63 0.62 0.64 0.79
0.50 0.53 0.55 0.58 0.57 0.57 0.57 0.58 0.62 0.65 0.66 0.67 0.64 0.60 0.52 0.46 0.42 0.39 0.35 0.32 0.32 0.30 0.30 0.30 0.29 0.30 0.31 0.36 0.43 0.49 0.51 0.53 0.55 0.58 0.60 0.65 0.65 0.72